Stündliche Wetter Holynchyntsi

Heute, 25 Juni, Freitag

Zeit Temperatur Niederschläge Wind Luftdruck Luftfeuchtigkeit
00:00 +24°C° 0 mm 1 m/S 736 mmHg 89%
01:00 +23°C° 0 mm 2 m/S 736 mmHg 90%
02:00 +23°C° 0 mm 2 m/S 736 mmHg 91%
03:00 +23°C° 0 mm 2 m/S 736 mmHg 90%
04:00 +23°C° 0 mm 1 m/S 736 mmHg 89%
05:00 +23°C° 0 mm 1 m/S 736 mmHg 88%
06:00 +24°C° 0 mm 1 m/S 736 mmHg 83%
07:00 +26°C° 0 mm 2 m/S 736 mmHg 78%
08:00 +27°C° 0 mm 3 m/S 736 mmHg 73%
09:00 +28°C° 0 mm 3 m/S 736 mmHg 66%
10:00 +29°C° 0 mm 3 m/S 736 mmHg 59%
11:00 +30°C° 0 mm 3 m/S 737 mmHg 52%
12:00 +30°C° 0 mm 3 m/S 736 mmHg 51%
13:00 +31°C° 0 mm 2 m/S 736 mmHg 50%
14:00 +31°C° 0 mm 2 m/S 736 mmHg 49%
15:00 +31°C° 0 mm 2 m/S 736 mmHg 54%
16:00 +31°C° 0 mm 2 m/S 735 mmHg 59%
17:00 +30°C° 0 mm 3 m/S 735 mmHg 64%
18:00 +29°C° 0 mm 2 m/S 735 mmHg 68%
19:00 +27°C° 0 mm 2 m/S 735 mmHg 71%
20:00 +26°C° 0 mm 1 m/S 735 mmHg 75%
21:00 +25°C° 0 mm 1 m/S 735 mmHg 76%
22:00 +25°C° 0 mm 1 m/S 735 mmHg 78%
23:00 +24°C° 0 mm 1 m/S 735 mmHg 79%

Morgen, 26 Juni, Samstag

Zeit Temperatur Niederschläge Wind Luftdruck Luftfeuchtigkeit
00:00 +23°C° 0 mm 1 m/S 735 mmHg 80%
01:00 +23°C° 0 mm 1 m/S 735 mmHg 82%
02:00 +23°C° 0 mm 1 m/S 735 mmHg 84%
03:00 +22°C° 0 mm 1 m/S 735 mmHg 86%
04:00 +21°C° 0 mm 2 m/S 735 mmHg 87%
05:00 +21°C° 0 mm 2 m/S 734 mmHg 89%
06:00 +23°C° 0.1 mm 2 m/S 735 mmHg 85%
07:00 +25°C° 0.1 mm 2 m/S 735 mmHg 81%
08:00 +26°C° 0.1 mm 2 m/S 735 mmHg 78%
09:00 +27°C° 0.8 mm 2 m/S 735 mmHg 74%
10:00 +28°C° 0.8 mm 2 m/S 735 mmHg 69%
11:00 +29°C° 0.8 mm 2 m/S 735 mmHg 65%
12:00 +29°C° 0.3 mm 3 m/S 735 mmHg 65%
13:00 +29°C° 0.3 mm 3 m/S 735 mmHg 65%
14:00 +29°C° 0.3 mm 4 m/S 735 mmHg 65%
15:00 +27°C° 2.2 mm 4 m/S 735 mmHg 72%
16:00 +25°C° 2.2 mm 4 m/S 735 mmHg 80%
17:00 +23°C° 2.2 mm 4 m/S 735 mmHg 87%
18:00 +22°C° 0.5 mm 3 m/S 735 mmHg 88%
19:00 +21°C° 0.5 mm 3 m/S 735 mmHg 88%
20:00 +20°C° 0.5 mm 2 m/S 734 mmHg 89%
21:00 +20°C° 0.8 mm 2 m/S 735 mmHg 90%
22:00 +20°C° 0.8 mm 2 m/S 735 mmHg 92%
23:00 +19°C° 0.8 mm 2 m/S 735 mmHg 94%

übermorgen, 27 Juni, Sonntag

Zeit Temperatur Niederschläge Wind Luftdruck Luftfeuchtigkeit
00:00 +19°C° 0.2 mm 2 m/S 735 mmHg 94%
01:00 +19°C° 0.2 mm 2 m/S 735 mmHg 95%
02:00 +19°C° 0.2 mm 2 m/S 734 mmHg 96%
03:00 +19°C° 0 mm 3 m/S 735 mmHg 96%
04:00 +19°C° 0 mm 3 m/S 735 mmHg 97%
05:00 +19°C° 0 mm 4 m/S 735 mmHg 97%
06:00 +20°C° 0 mm 4 m/S 735 mmHg 93%
07:00 +21°C° 0 mm 4 m/S 735 mmHg 89%
08:00 +22°C° 0 mm 5 m/S 735 mmHg 85%
09:00 +23°C° 0 mm 5 m/S 736 mmHg 81%
10:00 +25°C° 0 mm 5 m/S 736 mmHg 77%
11:00 +26°C° 0 mm 5 m/S 736 mmHg 72%
12:00 +25°C° 0.1 mm 5 m/S 736 mmHg 74%
13:00 +25°C° 0.1 mm 5 m/S 736 mmHg 75%
14:00 +25°C° 0.1 mm 5 m/S 736 mmHg 76%
15:00 +25°C° 0.1 mm 5 m/S 736 mmHg 76%
16:00 +25°C° 0.1 mm 5 m/S 736 mmHg 76%
17:00 +25°C° 0.1 mm 4 m/S 736 mmHg 76%
18:00 +23°C° 0.1 mm 4 m/S 736 mmHg 81%
19:00 +22°C° 0.1 mm 4 m/S 736 mmHg 86%
20:00 +20°C° 0.1 mm 3 m/S 736 mmHg 91%
21:00 +20°C° 0 mm 3 m/S 736 mmHg 92%
22:00 +19°C° 0 mm 3 m/S 736 mmHg 93%
23:00 +18°C° 0 mm 3 m/S 736 mmHg 95%

28 Juni, Montag

Zeit Temperatur Niederschläge Wind Luftdruck Luftfeuchtigkeit
00:00 +18°C° 0 mm 3 m/S 736 mmHg 94%
01:00 +18°C° 0 mm 3 m/S 736 mmHg 94%
02:00 +17°C° 0 mm 3 m/S 736 mmHg 94%
03:00 +17°C° 0 mm 3 m/S 736 mmHg 93%
04:00 +17°C° 0 mm 3 m/S 736 mmHg 93%
05:00 +17°C° 0 mm 3 m/S 736 mmHg 93%
06:00 +18°C° 0 mm 3 m/S 737 mmHg 87%
07:00 +20°C° 0 mm 4 m/S 737 mmHg 81%
08:00 +21°C° 0 mm 5 m/S 737 mmHg 76%
09:00 +22°C° 0 mm 5 m/S 737 mmHg 71%
10:00 +23°C° 0 mm 5 m/S 737 mmHg 66%
11:00 +25°C° 0 mm 5 m/S 737 mmHg 62%
12:00 +26°C° 0 mm 5 m/S 737 mmHg 60%
13:00 +26°C° 0 mm 5 m/S 737 mmHg 58%
14:00 +26°C° 0 mm 5 m/S 737 mmHg 56%
15:00 +26°C° 0 mm 5 m/S 737 mmHg 58%
16:00 +26°C° 0 mm 4 m/S 737 mmHg 61%
17:00 +26°C° 0 mm 4 m/S 737 mmHg 64%
18:00 +24°C° 0 mm 3 m/S 737 mmHg 68%
19:00 +23°C° 0 mm 2 m/S 737 mmHg 73%
20:00 +20°C° 0 mm 2 m/S 737 mmHg 77%
21:00 +20°C° 0 mm 2 m/S 737 mmHg 79%
22:00 +19°C° 0 mm 2 m/S 737 mmHg 81%
23:00 +18°C° 0 mm 3 m/S 737 mmHg 83%

29 Juni, Dienstag

Zeit Temperatur Niederschläge Wind Luftdruck Luftfeuchtigkeit
00:00 +17°C° 0 mm 3 m/S 737 mmHg 83%
01:00 +17°C° 0 mm 3 m/S 737 mmHg 83%
02:00 +16°C° 0 mm 2 m/S 737 mmHg 83%
03:00 +16°C° 0 mm 2 m/S 737 mmHg 84%
04:00 +16°C° 0 mm 2 m/S 737 mmHg 85%
05:00 +16°C° 0 mm 2 m/S 737 mmHg 86%
06:00 +18°C° 0 mm 2 m/S 737 mmHg 80%
07:00 +20°C° 0 mm 2 m/S 737 mmHg 75%
08:00 +21°C° 0 mm 2 m/S 737 mmHg 70%
09:00 +24°C° 0 mm 2 m/S 737 mmHg 64%
10:00 +25°C° 0 mm 2 m/S 737 mmHg 58%
11:00 +26°C° 0 mm 2 m/S 737 mmHg 52%
12:00 +26°C° 0 mm 2 m/S 737 mmHg 50%
13:00 +27°C° 0 mm 2 m/S 736 mmHg 49%
14:00 +27°C° 0 mm 2 m/S 736 mmHg 48%
15:00 +27°C° 0 mm 2 m/S 736 mmHg 53%
16:00 +26°C° 0 mm 2 m/S 736 mmHg 58%
17:00 +25°C° 0 mm 1 m/S 735 mmHg 63%
18:00 +24°C° 0 mm 1 m/S 735 mmHg 66%
19:00 +23°C° 0 mm 1 m/S 735 mmHg 68%
20:00 +22°C° 0 mm 1 m/S 735 mmHg 70%
21:00 +21°C° 0 mm 1 m/S 735 mmHg 71%
22:00 +20°C° 0 mm 1 m/S 735 mmHg 71%
23:00 +20°C° 0 mm 1 m/S 735 mmHg 71%

30 Juni, Mittwoch

Zeit Temperatur Niederschläge Wind Luftdruck Luftfeuchtigkeit
00:00 +20°C° 0 mm 1 m/S 735 mmHg 72%
01:00 +19°C° 0 mm 1 m/S 734 mmHg 73%
02:00 +19°C° 0 mm 1 m/S 734 mmHg 73%
03:00 +19°C° 0 mm 1 m/S 734 mmHg 76%
04:00 +19°C° 0 mm 1 m/S 734 mmHg 78%
05:00 +19°C° 0 mm 1 m/S 734 mmHg 81%
06:00 +20°C° 0 mm 2 m/S 734 mmHg 78%
07:00 +21°C° 0 mm 2 m/S 734 mmHg 75%
08:00 +24°C° 0 mm 2 m/S 734 mmHg 72%
09:00 +25°C° 0 mm 2 m/S 734 mmHg 69%
10:00 +27°C° 0 mm 2 m/S 734 mmHg 66%
11:00 +28°C° 0 mm 2 m/S 733 mmHg 63%
12:00 +29°C° 0 mm 2 m/S 733 mmHg 61%
13:00 +29°C° 0 mm 3 m/S 733 mmHg 59%
14:00 +30°C° 0 mm 3 m/S 733 mmHg 57%
15:00 +30°C° 0 mm 2 m/S 733 mmHg 58%
16:00 +30°C° 0 mm 2 m/S 732 mmHg 59%
17:00 +30°C° 0 mm 2 m/S 732 mmHg 59%
18:00 +29°C° 0 mm 2 m/S 732 mmHg 65%
19:00 +27°C° 0 mm 2 m/S 732 mmHg 71%
20:00 +25°C° 0 mm 2 m/S 732 mmHg 77%
21:00 +24°C° 0 mm 3 m/S 732 mmHg 79%
22:00 +22°C° 0 mm 4 m/S 732 mmHg 80%
23:00 +21°C° 0 mm 4 m/S 732 mmHg 81%
Mehr zeigen

Wir brauchen deine Erlaubnis

Meteoprog und unser Service Anbieter werden persönliche Daten aufbewahren, so wie Cookies, Geräte Bezeichnung oder ähnliche Technologien von deinem Gerät und Prozess, so wie Persönliche Daten Inhalte und Werbungen, genauso wie social Media und den Verkehr zu analysieren.

  • Aufbewahrung und/oder Zugang zu deiner Geräte Informationen.

    Cookies, Geräte Bezeichnung oder andere Informationen, können aufbewahrt oder Zugang zu deinem Gerät erhalten, für den Grund, der oben angegeben wird.

  • Personalisierte Werbung und Inhalte, Messungen, Einblick in das Publikum und Produkt Entwicklung.

    Werbungen und Inhalte können personalisiert werden, basierend auf ein Profil. Mehr Daten können besser personalisierte Werbungen und Inhalte hinzufügen. Werbung und Inhalte können gezeigt und gemessen werden. Einblicke über das Publikum, welche die Werbung gesehen haben und den Inhalt, können abgeleitet werden. So wie Daten können genutzt werden, um es zu verbessern oder die Benutzer Erfahrung zu verbessern das System und die Software.

Wenn du “Ich stimme zu” klickst, erlaubst du uns, die Cookies zu benutzen die Geräte Bezeichnung, den Web oder ähnliche Technologien zu benutzen. Deine Settings, können in deinem Gerät bei deinem Browser geändert werden.

Für den bestimmten Zweck, berechtigten Interessen beruhen darauf, mehr als auf den Inhalt. Du kannst mehr darüber in unseren Privaten und Cookie Politik lesen.